Wind_Speed
7 7 6 5 3 8 10 11 16 14 13 16 16 18 20 16 15 16 15 14 15 15 17 16 15 14 11 11 11 11 12 11 11 11 10 9 6 5 6 7 7 8 10 11 11 10 10 10 11
6 6 7 6 9 12 11 13 16 14 15 15 17 18 18 16 15 15 14 14 15 16 17 18 18 17 15 13 13 13 13 11 10 9 9 9 8 7 6 7 7 8 10 11 11 11 12 13 13
6 8 16 6 22 15 14 14 14 14 16 18 18 16 16 16 14 15 15 14 14 16 17 18 19 20 18 15 14 14 13 13 13 12 11 10 8 7 7 8 8 10 11 11 12 12 13 14 15
5 10 12 14 20 16 19 16 16 15 14 16 18 17 16 16 15 15 16 14 15 16 17 18 19 20 21 19 17 16 15 16 16 15 13 11 9 10 12 12 11 11 11 9 12 18 15 15 16
5 6 12 14 18 16 16 15 17 16 17 16 18 17 17 16 15 14 16 15 14 15 17 17 17 19 21 22 20 19 19 19 18 15 16 16 17 18 19 19 17 16 14 16 22 18 16 16 16
3 2 12 10 14 14 14 17 18 17 16 17 18 17 17 16 15 14 15 16 15 14 15 16 17 18 19 20 20 20 19 19 18 16 18 18 19 18 17 16 17 15 14 15 17 16 15 16 17
5 3 4 5 14 17 14 15 18 19 14 17 18 17 16 16 14 14 15 17 16 14 13 15 16 17 16 18 19 19 19 18 18 15 19 19 18 16 15 14 14 13 13 14 17 16 15 16 18
5 1 4 5 17 23 14 14 16 17 15 16 17 18 17 16 13 13 15 16 16 13 13 14 14 15 16 16 17 19 18 19 18 19 18 18 17 16 15 14 11 9 10 12 14 13 14 16 17
6 4 5 11 23 20 15 14 16 17 17 16 14 13 14 16 13 13 14 15 15 15 14 14 15 15 16 17 17 18 17 18 17 17 17 15 14 14 13 13 12 13 11 13 14 12 16 15 17
8 6 7 14 23 22 17 17 19 18 18 16 13 10 9 14 13 12 13 13 13 14 15 14 15 16 15 17 17 18 18 19 18 17 16 15 15 13 11 12 12 16 13 16 15 13 16 16 17
10 8 7 11 18 20 17 14 17 18 17 16 19 13 10 15 13 11 12 12 11 12 13 14 13 14 15 16 17 18 19 19 18 16 16 14 13 14 13 17 16 17 20 17 16 16 16 16 18
11 9 7 11 15 19 18 16 14 15 17 17 15 19 14 14 12 10 10 12 10 10 12 12 12 13 13 15 16 17 16 19 18 17 15 14 15 16 16 18 18 18 19 17 17 16 17 18 22
12 9 9 10 11 20 18 17 16 15 16 18 15 14 15 16 13 12 9 10 9 10 10 12 11 12 13 14 14 14 14 16 15 15 15 17 16 17 18 18 18 17 17 16 16 17 19 23 26
15 11 11 11 11 17 20 19 15 14 15 17 19 16 16 14 14 12 11 8 8 9 9 11 12 12 13 14 14 14 15 15 16 16 16 15 16 17 17 17 17 16 16 16 17 19 21 25 28
15 15 14 12 13 14 18 18 23 15 15 17 18 17 15 13 12 11 11 9 7 8 8 10 12 13 12 13 14 13 13 13 14 15 15 15 15 16 16 17 16 15 15 15 17 20 23 24 26
21 14 13 14 16 17 18 17 22 23 17 15 17 18 17 16 15 12 11 11 9 8 8 9 11 12 12 11 13 13 13 14 15 15 15 15 13 12 13 15 15 16 17 15 16 18 21 22 22
20 19 18 18 18 22 21 20 20 21 17 15 18 18 17 17 15 14 13 11 10 9 8 8 10 10 11 11 12 13 12 14 14 15 15 14 13 11 9 11 12 13 15 15 15 16 19 20 20
24 24 22 19 18 16 18 22 24 26 21 19 17 19 19 19 19 17 14 12 11 11 10 8 9 10 9 10 10 11 11 12 13 12 12 12 11 10 10 9 9 9 11 12 13 14 15 17 17
32 29 23 22 26 13 17 7 28 25 22 21 18 19 19 17 17 16 15 14 12 11 11 10 8 8 10 10 10 9 10 11 12 12 11 11 11 9 8 8 9 10 8 9 10 11 13 13 14
29 15 21 24 20 16 14 10 13 13 27 24 21 17 15 16 15 16 16 16 14 12 12 12 11 8 8 8 9 10 8 9 10 9 9 10 9 8 8 8 7 7 8 9 9 9 10 12 12
28 25 26 24 17 16 15 17 15 16 23 24 22 19 18 18 18 18 18 19 18 15 13 12 11 10 7 9 8 9 10 7 8 9 7 8 9 8 8 7 6 5 5 6 7 8 8 10 12
30 31 29 27 25 23 21 15 18 30 26 27 21 17 19 18 18 18 18 18 18 17 15 14 12 11 10 8 9 9 8 9 8 8 7 6 8 9 9 8 6 5 5 5 6 7 9 9 11
37 33 31 27 25 31 23 16 14 24 31 29 23 18 17 19 16 14 15 15 17 18 17 16 15 13 11 10 8 7 8 7 6 6 5 6 7 7 7 8 10 7 6 6 6 5 6 8 9
35 34 33 29 27 27 23 24 20 22 27 30 24 16 16 15 17 18 17 14 14 16 18 17 16 15 14 13 12 9 8 8 8 6 6 6 6 7 9 9 8 9 9 8 7 6 6 7 8
37 36 35 31 23 16 22 18 22 21 11 6 11 15 12 16 16 17 14 16 14 15 17 17 16 15 14 14 13 12 10 9 11 10 9 7 7 8 8 9 10 9 8 9 10 9 8 8 8
39 37 31 30 22 21 29 23 17 12 10 12 11 12 7 13 20 19 17 15 21 20 20 17 14 12 14 14 14 13 12 11 12 13 11 10 10 9 8 9 10 10 10 10 8 10 11 10 10
41 43 37 30 24 21 26 29 20 22 20 16 12 12 15 19 18 19 22 21 24 23 27 19 19 15 12 14 14 14 15 14 13 14 15 13 10 10 9 9 10 11 11 11 11 10 11 12 11
42 40 39 40 26 23 20 23 21 26 23 21 15 15 19 21 21 22 24 27 29 26 29 25 20 19 15 13 15 16 17 17 16 16 15 16 14 13 12 11 10 11 11 11 12 12 12 12 13
42 38 42 31 30 22 22 18 30 26 24 24 21 20 24 26 27 28 29 30 30 29 26 22 21 21 19 14 15 17 16 18 19 19 17 16 16 15 14 13 12 13 12 11 11 12 12 14 15
42 39 38 36 29 32 22 22 26 26 23 26 26 25 23 29 26 23 26 33 33 34 31 30 22 29 27 16 16 19 14 19 20 22 22 21 19 18 18 17 16 16 13 13 13 13 13 14 15
Wind_Direction
6 25 10 15 182 143 136 132 126 125 118 122 113 104 103 100 95 93 91 96 93 84 79 77 76 73 80 101 122 129 135 138 135 130 126 116 118 134 144 145 132 143 134 133 129 130 129 129 136
6 10 343 313 178 175 144 144 135 133 127 124 116 111 108 106 97 93 89 88 87 85 83 80 75 71 78 97 119 132 139 138 131 127 125 130 152 161 159 145 146 141 146 142 133 133 130 130 126
21 13 340 326 157 167 158 147 138 133 130 128 120 111 111 108 102 99 92 89 90 85 81 78 75 74 75 87 106 119 124 129 131 129 126 131 142 156 156 140 143 147 149 142 142 128 127 130 131
43 19 52 90 143 151 149 132 139 129 126 123 113 109 110 107 103 101 95 88 91 88 81 79 75 76 79 86 99 109 111 120 117 116 115 116 122 124 110 109 114 128 138 154 147 127 128 136 136
49 51 50 127 141 147 159 143 144 134 132 127 115 111 108 106 105 100 97 95 92 90 89 85 81 80 84 88 96 102 110 112 111 106 102 105 109 105 107 109 108 106 106 101 130 120 128 136 137
67 2 57 112 175 152 146 143 148 137 138 129 119 116 113 107 107 104 98 94 97 94 90 91 89 85 87 91 92 96 105 108 105 106 104 102 101 102 100 100 101 103 104 105 109 120 118 127 134
99 20 12 142 160 150 148 148 149 135 138 134 130 126 119 112 112 106 102 96 96 95 93 92 91 89 89 92 94 99 102 99 96 93 103 94 95 101 102 100 98 101 106 108 128 112 112 126 133
128 36 355 315 169 159 140 142 142 143 149 146 146 140 130 118 117 106 102 101 94 93 96 94 93 91 90 92 93 94 97 97 96 91 93 94 91 91 99 99 93 104 114 113 122 115 114 125 135
125 99 44 160 150 153 143 145 147 150 157 157 152 145 132 124 117 108 104 102 99 89 92 93 92 95 92 94 97 94 93 95 95 92 89 96 96 94 90 99 91 94 125 114 124 121 114 127 130
138 115 117 140 150 152 150 159 154 158 163 160 152 152 146 125 120 108 105 103 101 93 88 94 95 99 99 99 93 94 92 94 95 92 93 94 90 89 96 103 93 86 108 123 116 110 108 118 127
162 142 137 159 161 163 156 162 161 159 170 170 160 148 157 133 132 126 114 107 102 96 88 87 95 101 101 103 103 98 95 96 95 94 91 90 92 93 94 97 92 91 95 100 110 107 109 116 122
174 161 138 157 171 185 166 161 162 163 170 174 174 155 162 138 127 127 123 115 109 99 100 91 91 102 106 101 106 103 99 97 100 100 101 100 97 97 94 97 95 91 95 97 99 102 105 109 120
184 180 167 155 165 186 174 168 157 170 180 173 167 173 162 151 143 148 135 130 124 106 109 107 97 95 104 105 102 106 104 101 103 103 102 100 101 100 99 93 91 91 93 97 99 103 107 114 120
193 188 180 189 191 197 181 179 174 164 179 177 162 180 175 168 154 154 144 141 127 114 113 115 108 98 95 101 100 108 106 107 105 106 106 105 107 106 103 101 99 99 99 101 102 105 112 118 119
182 197 200 207 199 191 191 189 188 180 172 174 169 176 178 169 160 154 150 150 141 125 111 120 118 112 99 97 105 109 115 105 108 104 108 106 103 109 111 110 107 102 101 103 108 109 116 120 122
178 188 195 195 197 196 205 192 189 182 169 170 176 173 178 176 171 159 157 156 161 141 119 121 119 120 112 104 107 112 115 116 110 110 107 108 106 104 108 111 112 112 109 111 114 118 125 128 127
180 188 192 193 187 191 195 171 181 187 180 181 179 177 175 181 177 172 166 167 171 158 141 135 126 121 120 116 112 113 119 124 122 118 114 110 117 119 113 108 110 111 113 114 117 120 129 138 138
189 181 193 195 207 224 209 194 187 194 187 182 178 179 179 181 179 180 173 178 181 171 159 149 131 125 128 122 121 121 118 124 134 133 125 121 125 126 131 125 122 121 118 120 118 120 127 137 142
200 179 191 210 217 235 213 202 192 192 191 184 183 177 177 181 182 184 178 185 186 179 175 160 149 143 137 136 141 138 131 124 133 139 133 128 125 127 130 130 131 137 138 128 125 119 126 129 143
216 207 214 224 237 230 241 234 242 195 189 180 185 182 175 173 182 188 190 188 192 188 181 180 170 170 158 146 139 149 142 133 133 138 143 143 141 137 136 141 136 145 150 147 136 132 131 147 146
218 226 227 233 221 229 224 250 275 208 174 187 188 188 178 177 189 188 193 192 194 195 188 192 187 185 176 162 161 153 161 164 140 144 147 152 158 168 163 151 141 142 152 142 135 144 149 156 158
218 223 228 227 224 226 227 236 253 193 187 178 177 171 182 179 185 192 190 195 193 196 197 198 200 199 192 184 176 177 167 165 160 154 165 172 158 170 182 180 178 161 158 152 140 146 152 163 165
212 216 224 228 230 235 243 241 237 189 179 177 180 179 173 180 183 193 201 199 199 199 197 202 206 202 205 201 191 190 193 196 167 150 168 194 192 176 176 194 199 191 191 183 175 166 163 169 180
219 218 226 223 231 239 245 254 249 244 193 165 167 172 182 177 183 198 202 195 203 209 206 205 205 205 206 209 205 203 206 212 202 193 192 209 212 209 197 189 200 204 210 214 203 194 195 188 182
212 219 223 225 222 230 237 239 254 202 209 220 183 190 183 215 203 208 201 208 207 214 214 210 210 212 212 214 216 210 213 218 212 209 204 213 213 223 226 217 209 208 208 215 225 224 218 209 205
217 218 221 229 223 233 239 233 229 233 201 223 240 246 226 222 210 208 201 211 201 208 205 208 204 218 225 223 221 225 223 226 223 224 223 221 227 232 232 238 238 228 223 222 221 232 224 223 218
213 217 217 211 213 220 255 235 220 221 214 224 240 248 230 231 230 218 220 209 206 216 220 214 219 228 223 226 225 229 228 226 232 232 234 233 230 239 248 238 239 240 231 234 232 237 233 227 228
215 215 217 219 214 222 234 239 216 217 226 232 230 241 232 226 223 226 224 215 219 226 243 237 218 220 218 218 225 230 234 229 232 238 238 236 233 235 247 248 245 243 240 237 236 235 238 241 236
219 216 219 221 222 226 231 260 224 223 222 230 224 221 221 222 225 229 227 223 225 226 227 237 241 239 226 222 228 226 236 234 232 234 240 243 235 232 226 232 244 243 243 250 250 247 240 241 242
220 218 223 224 219 218 208 233 250 221 215 217 220 217 220 218 221 231 234 233 233 234 230 225 243 223 234 226 243 237 242 249 243 241 236 234 236 228 228 239 242 240 244 240 244 252 255 252 246
Height
5903 5903 5902 5903 5905 5903 5903 5905 5904 5905 5906 5905 5906 5905 5904 5906 5906 5907 5905 5904 5903 5902 5901 5900 5899 5898 5897 5897 5897 5897 5899 5900 5902 5902 5902 5902 5905 5906 5906 5907 5905 5906 5906 5906 5907 5909 5910 5911 5913
5903 5901 5901 5900 5903 5903 5905 5906 5906 5906 5906 5907 5907 5907 5907 5908 5908 5907 5907 5906 5905 5905 5904 5903 5902 5900 5899 5898 5899 5900 5901 5902 5903 5904 5904 5906 5908 5907 5907 5906 5906 5906 5906 5907 5909 5910 5912 5913 5914
5903 5902 5900 5894 5900 5903 5906 5906 5907 5908 5908 5908 5909 5910 5911 5911 5911 5910 5909 5909 5908 5907 5907 5906 5905 5903 5901 5901 5901 5903 5904 5905 5905 5906 5907 5907 5907 5907 5907 5907 5906 5907 5908 5910 5910 5913 5914 5915 5916
5904 5905 5903 5900 5903 5905 5907 5908 5908 5910 5911 5911 5912 5912 5914 5914 5914 5913 5912 5912 5911 5910 5909 5909 5907 5906 5906 5905 5905 5906 5907 5908 5908 5909 5909 5908 5907 5908 5907 5907 5908 5909 5909 5910 5912 5913 5915 5917 5919
5905 5906 5904 5901 5905 5906 5908 5908 5910 5910 5911 5913 5913 5915 5916 5916 5917 5916 5915 5914 5914 5913 5912 5912 5911 5911 5909 5909 5909 5909 5909 5910 5911 5911 5911 5910 5910 5910 5910 5911 5911 5911 5913 5912 5914 5916 5917 5919 5921
5905 5902 5903 5906 5907 5908 5909 5909 5911 5912 5913 5914 5915 5916 5918 5918 5919 5919 5918 5917 5916 5916 5915 5915 5915 5914 5914 5913 5912 5912 5913 5913 5914 5914 5914 5914 5914 5914 5914 5914 5915 5916 5916 5916 5917 5918 5919 5920 5922
5905 5905 5905 5906 5907 5909 5910 5911 5911 5912 5915 5916 5917 5918 5920 5919 5920 5920 5920 5920 5919 5919 5919 5918 5918 5918 5917 5917 5916 5916 5916 5916 5916 5915 5917 5917 5916 5916 5916 5916 5917 5917 5918 5919 5920 5921 5921 5922 5924
5906 5906 5905 5904 5905 5909 5910 5912 5912 5914 5916 5918 5919 5919 5920 5921 5922 5922 5922 5922 5922 5922 5921 5921 5921 5921 5920 5920 5919 5919 5919 5919 5919 5919 5920 5920 5919 5920 5919 5920 5920 5920 5920 5921 5922 5923 5924 5925 5926
5906 5907 5905 5903 5907 5910 5911 5912 5914 5915 5917 5919 5921 5922 5921 5922 5924 5924 5924 5924 5924 5924 5924 5924 5923 5923 5923 5923 5923 5922 5922 5922 5923 5923 5923 5923 5924 5924 5924 5923 5923 5922 5922 5923 5925 5926 5927 5928 5929
5905 5907 5907 5907 5907 5910 5911 5912 5913 5916 5918 5920 5922 5924 5924 5924 5925 5926 5926 5926 5926 5926 5926 5926 5927 5926 5926 5927 5927 5926 5925 5925 5926 5926 5927 5927 5927 5927 5926 5926 5925 5925 5925 5926 5928 5929 5929 5930 5931
5905 5906 5907 5908 5908 5909 5911 5913 5914 5915 5919 5920 5921 5924 5926 5925 5926 5927 5928 5928 5928 5928 5928 5929 5929 5929 5929 5929 5929 5929 5928 5928 5928 5929 5929 5930 5930 5929 5929 5929 5928 5928 5928 5930 5931 5931 5932 5932 5934
5905 5906 5906 5908 5909 5910 5911 5913 5916 5917 5918 5921 5923 5923 5926 5927 5928 5929 5930 5930 5930 5931 5931 5931 5931 5931 5931 5931 5931 5932 5931 5931 5931 5932 5933 5934 5933 5933 5933 5932 5932 5932 5933 5934 5935 5935 5935 5936 5937
5904 5905 5906 5908 5908 5910 5912 5915 5915 5917 5919 5921 5923 5925 5927 5927 5928 5930 5931 5932 5932 5933 5933 5933 5934 5934 5933 5933 5934 5934 5935 5934 5934 5936 5937 5937 5937 5936 5936 5936 5936 5936 5937 5938 5940 5940 5940 5940 5941
5902 5905 5906 5907 5908 5910 5911 5914 5916 5917 5919 5920 5922 5926 5927 5928 5929 5931 5932 5934 5935 5935 5935 5935 5936 5936 5936 5936 5937 5937 5937 5937 5938 5938 5939 5940 5940 5940 5940 5940 5940 5941 5942 5943 5943 5944 5945 5945 5946
5900 5903 5904 5905 5906 5909 5911 5912 5914 5917 5918 5920 5922 5925 5927 5929 5931 5932 5933 5935 5936 5937 5937 5938 5938 5938 5939 5939 5939 5940 5940 5940 5941 5941 5942 5943 5944 5944 5944 5945 5945 5945 5946 5947 5948 5948 5949 5950 5950
5895 5899 5903 5904 5905 5907 5910 5911 5912 5915 5917 5919 5922 5924 5926 5929 5930 5932 5934 5936 5937 5938 5939 5940 5940 5940 5941 5942 5941 5942 5943 5943 5943 5944 5945 5946 5946 5947 5947 5948 5948 5949 5949 5950 5951 5951 5952 5954 5955
5892 5898 5900 5903 5904 5906 5907 5907 5910 5912 5915 5919 5921 5922 5924 5928 5931 5933 5935 5936 5938 5939 5940 5942 5942 5941 5942 5944 5944 5944 5945 5946 5946 5946 5947 5948 5949 5950 5951 5951 5951 5952 5952 5953 5954 5955 5955 5957 5958
5891 5895 5899 5901 5903 5903 5903 5904 5908 5910 5913 5917 5920 5921 5924 5926 5930 5932 5934 5936 5939 5940 5941 5942 5943 5943 5943 5945 5946 5946 5947 5947 5949 5949 5950 5950 5951 5952 5953 5954 5955 5955 5955 5956 5957 5958 5959 5960 5962
5886 5891 5896 5898 5898 5890 5898 5900 5902 5908 5910 5916 5919 5921 5922 5925 5928 5931 5934 5936 5939 5940 5941 5942 5943 5944 5945 5945 5947 5947 5948 5949 5950 5951 5952 5953 5953 5954 5955 5957 5958 5958 5958 5959 5960 5961 5961 5963 5964
5884 5885 5890 5893 5895 5898 5899 5899 5902 5905 5909 5913 5917 5920 5921 5924 5927 5930 5933 5936 5938 5941 5942 5942 5943 5945 5946 5947 5948 5949 5950 5951 5952 5952 5954 5955 5956 5957 5958 5959 5959 5960 5960 5961 5962 5963 5963 5964 5966
5884 5886 5888 5891 5895 5897 5897 5899 5901 5901 5904 5909 5914 5917 5919 5922 5926 5929 5932 5934 5937 5940 5941 5942 5943 5945 5946 5947 5948 5949 5950 5951 5953 5954 5955 5956 5957 5958 5959 5960 5961 5961 5962 5962 5963 5964 5965 5966 5967
5881 5882 5885 5889 5892 5894 5896 5899 5899 5901 5898 5905 5911 5915 5919 5922 5925 5928 5931 5933 5936 5938 5940 5942 5943 5943 5945 5946 5947 5949 5951 5952 5953 5955 5956 5957 5958 5959 5960 5961 5961 5962 5963 5964 5964 5965 5966 5967 5968
5872 5879 5881 5887 5891 5891 5892 5897 5898 5899 5900 5904 5909 5913 5918 5921 5925 5928 5930 5932 5934 5935 5938 5940 5942 5943 5944 5945 5946 5948 5950 5952 5953 5955 5956 5956 5957 5959 5960 5961 5962 5964 5965 5965 5965 5967 5967 5967 5968
5869 5875 5879 5884 5887 5891 5892 5895 5896 5898 5901 5902 5908 5913 5917 5920 5923 5925 5927 5930 5932 5934 5935 5937 5940 5942 5943 5944 5946 5947 5949 5951 5952 5953 5955 5956 5957 5958 5960 5961 5963 5964 5965 5966 5967 5967 5968 5968 5968
5865 5870 5876 5882 5886 5894 5891 5895 5896 5896 5900 5904 5906 5912 5916 5918 5921 5924 5927 5929 5931 5932 5933 5935 5937 5939 5941 5943 5945 5947 5947 5949 5951 5952 5954 5956 5956 5957 5959 5961 5962 5963 5965 5966 5966 5967 5967 5968 5969
5861 5867 5873 5878 5886 5890 5887 5893 5898 5899 5902 5905 5907 5910 5913 5916 5919 5922 5924 5927 5929 5930 5930 5932 5934 5937 5939 5941 5943 5945 5947 5948 5950 5951 5953 5955 5956 5957 5958 5960 5961 5963 5965 5965 5966 5967 5968 5968 5969
5855 5858 5869 5874 5877 5887 5886 5889 5897 5898 5902 5905 5907 5910 5911 5914 5917 5920 5922 5925 5927 5928 5929 5927 5931 5933 5936 5939 5942 5943 5944 5945 5947 5949 5951 5953 5954 5956 5958 5959 5960 5962 5963 5965 5965 5966 5967 5968 5968
5847 5857 5862 5866 5876 5882 5884 5886 5890 5895 5898 5902 5906 5907 5910 5912 5914 5916 5919 5922 5923 5925 5926 5927 5929 5929 5932 5936 5938 5940 5942 5943 5944 5946 5948 5950 5951 5954 5956 5958 5959 5959 5961 5962 5963 5964 5966 5967 5967
5844 5851 5855 5866 5871 5879 5883 5885 5884 5890 5894 5898 5902 5904 5906 5908 5910 5913 5914 5917 5920 5920 5923 5921 5925 5927 5930 5933 5935 5936 5939 5941 5941 5942 5945 5946 5947 5950 5952 5954 5956 5956 5958 5959 5961 5962 5963 5964 5965
5838 5846 5852 5857 5866 5870 5877 5882 5881 5884 5888 5892 5896 5899 5902 5904 5905 5908 5911 5912 5914 5916 5918 5919 5919 5918 5925 5928 5931 5933 5935 5936 5938 5939 5940 5943 5944 5945 5948 5950 5952 5954 5955 5956 5957 5958 5960 5961 5963